Time,TemperatureF,DewpointF,PressureIn,WindDirection,WindDirectionDegrees,WindSpeedMPH,WindSpeedGustMPH,Humidity,HourlyPrecipIn,Conditions,Clouds,dailyrainin,SoftwareType,DateUTC
2013-02-24 00:01:00,3.0,3.0,-100.00,NNE,15,0.0,1.0,99,0.00,,,-99.99,,2013-02-24 06:01:00,
2013-02-24 00:11:00,3.0,3.0,-100.00,NE,40,1.0,1.0,99,0.00,,,-99.99,,2013-02-24 06:11:00,
2013-02-24 00:21:00,4.0,4.0,-100.00,NNE,25,2.0,2.0,99,0.00,,,-99.99,,2013-02-24 06:21:00,
2013-02-24 00:31:00,4.0,4.0,-100.00,NNE,25,0.0,1.0,99,0.00,,,-99.99,,2013-02-24 06:31:00,
2013-02-24 00:41:00,4.0,4.0,-100.00,NE,35,0.0,1.0,99,0.00,,,-99.99,,2013-02-24 06:41:00,
2013-02-24 00:52:00,4.0,4.0,-100.00,NE,35,0.0,1.0,99,0.00,,,-99.99,,2013-02-24 06:52:00,
2013-02-24 01:01:00,4.0,4.0,-100.00,NE,35,0.0,1.0,99,0.00,,,-99.99,,2013-02-24 07:01:00,
2013-02-24 01:12:00,4.0,4.0,-100.00,NNE,30,2.0,2.0,99,0.00,,,-99.99,,2013-02-24 07:12:00,
2013-02-24 01:21:00,3.0,3.0,-100.00,NE,40,2.0,2.0,99,0.00,,,-99.99,,2013-02-24 07:21:00,
2013-02-24 01:31:00,4.0,4.0,-100.00,NNE,15,1.0,2.0,99,0.00,,,-99.99,,2013-02-24 07:31:00,
2013-02-24 01:51:00,4.0,4.0,-100.00,NNE,15,0.0,1.0,99,0.00,,,-99.99,,2013-02-24 07:51:00,
2013-02-24 02:01:00,5.0,5.0,-100.00,NNE,15,0.0,1.0,99,0.00,,,-99.99,,2013-02-24 08:01:00,
2013-02-24 02:11:00,5.0,5.0,-100.00,NNE,15,0.0,1.0,99,0.00,,,-99.99,,2013-02-24 08:11:00,
2013-02-24 02:22:00,5.0,5.0,-100.00,NNE,15,0.0,0.0,99,0.00,,,-99.99,,2013-02-24 08:22:00,
2013-02-24 02:31:00,5.0,5.0,-100.00,NE,35,1.0,2.0,99,0.00,,,-99.99,,2013-02-24 08:31:00,
2013-02-24 02:42:00,5.0,5.0,-100.00,NE,35,1.0,2.0,99,0.00,,,-99.99,,2013-02-24 08:42:00,
2013-02-24 02:53:00,5.0,5.0,-100.00,NE,35,2.0,2.0,99,0.00,,,-99.99,,2013-02-24 08:53:00,
2013-02-24 03:01:00,5.0,5.0,-100.00,NE,40,2.0,2.0,99,0.00,,,-99.99,,2013-02-24 09:01:00,
2013-02-24 03:11:00,5.0,5.0,-100.00,NNE,30,2.0,2.0,99,0.00,,,-99.99,,2013-02-24 09:11:00,
2013-02-24 03:21:00,4.0,4.0,-100.00,NNE,25,2.0,2.0,99,0.00,,,-99.99,,2013-02-24 09:21:00,
2013-02-24 03:31:00,5.0,5.0,-100.00,NNE,20,2.0,2.0,99,0.00,,,-99.99,,2013-02-24 09:31:00,
2013-02-24 03:51:00,5.0,5.0,-100.00,NNE,20,2.0,2.0,99,0.00,,,-99.99,,2013-02-24 09:51:00,
2013-02-24 04:11:00,6.0,6.0,-100.00,NNE,25,2.0,2.0,99,0.00,,,-99.99,,2013-02-24 10:11:00,
2013-02-24 04:31:00,7.0,7.0,-100.00,NNE,25,1.0,3.0,99,0.00,,,-99.99,,2013-02-24 10:31:00,
2013-02-24 04:41:00,7.0,7.0,-100.00,NNE,25,1.0,3.0,99,0.00,,,-99.99,,2013-02-24 10:41:00,
2013-02-24 04:51:00,7.0,7.0,-100.00,NE,35,1.0,1.0,99,0.00,,,-99.99,,2013-02-24 10:51:00,
2013-02-24 05:01:00,7.0,7.0,-100.00,NE,35,1.0,1.0,99,0.00,,,-99.99,,2013-02-24 11:01:00,
2013-02-24 05:11:00,6.0,6.0,-100.00,NE,40,1.0,2.0,99,0.00,,,-99.99,,2013-02-24 11:11:00,
2013-02-24 05:21:00,7.0,7.0,-100.00,NNE,15,2.0,3.0,99,0.00,,,-99.99,,2013-02-24 11:21:00,
2013-02-24 05:32:00,6.0,6.0,-100.00,NE,35,1.0,2.0,99,0.00,,,-99.99,,2013-02-24 11:32:00,
2013-02-24 05:41:00,6.0,6.0,-100.00,NE,35,1.0,2.0,99,0.00,,,-99.99,,2013-02-24 11:41:00,
2013-02-24 05:52:00,5.0,5.0,-100.00,NNE,20,2.0,2.0,99,0.00,,,-99.99,,2013-02-24 11:52:00,
2013-02-24 06:01:00,5.0,5.0,-100.00,NE,35,2.0,2.0,99,0.00,,,-99.99,,2013-02-24 12:01:00,
2013-02-24 06:11:00,5.0,5.0,-100.00,NE,35,1.0,2.0,99,0.00,,,-99.99,,2013-02-24 12:11:00,
2013-02-24 06:32:00,6.0,6.0,-100.00,NNE,30,2.0,3.0,99,0.00,,,-99.99,,2013-02-24 12:32:00,
2013-02-24 06:46:00,7.0,7.0,-100.00,NNE,25,1.0,3.0,99,0.00,,,-99.99,,2013-02-24 12:46:00,
2013-02-24 06:55:00,7.0,7.0,-100.00,North,10,1.0,2.0,99,0.00,,,-99.99,,2013-02-24 12:55:00,
2013-02-24 07:08:00,5.0,5.0,-100.00,North,10,1.0,1.0,99,0.00,,,-99.99,,2013-02-24 13:08:00,
2013-02-24 07:15:00,5.0,5.0,-100.00,North,10,0.0,1.0,99,0.00,,,-99.99,,2013-02-24 13:15:00,
2013-02-24 07:25:00,4.0,4.0,-100.00,NNE,20,0.0,2.0,99,0.00,,,-99.99,,2013-02-24 13:25:00,
2013-02-24 07:33:00,4.0,4.0,-100.00,NNE,20,0.0,1.0,99,0.00,,,-99.99,,2013-02-24 13:33:00,
2013-02-24 07:52:00,4.0,4.0,-100.00,NNE,25,1.0,1.0,99,0.00,,,-99.99,,2013-02-24 13:52:00,
2013-02-24 08:03:00,4.0,4.0,-100.00,NNE,25,1.0,1.0,99,0.00,,,-99.99,,2013-02-24 14:03:00,
2013-02-24 08:13:00,6.0,6.0,-100.00,NNE,25,0.0,0.0,99,0.00,,,-99.99,,2013-02-24 14:13:00,
2013-02-24 08:23:00,5.0,5.0,-100.00,North,5,2.0,2.0,99,0.00,,,-99.99,,2013-02-24 14:23:00,
2013-02-24 08:33:00,8.0,8.0,-100.00,North,5,0.0,1.0,99,0.00,,,-99.99,,2013-02-24 14:33:00,
2013-02-24 08:43:00,8.0,8.0,-100.00,North,5,0.0,1.0,99,0.00,,,-99.99,,2013-02-24 14:43:00,
2013-02-24 08:53:00,9.0,9.0,-100.00,NE,40,1.0,2.0,99,0.00,,,-99.99,,2013-02-24 14:53:00,
2013-02-24 09:02:00,9.0,9.0,-100.00,NE,40,1.0,2.0,99,0.00,,,-99.99,,2013-02-24 15:02:00,
2013-02-24 09:13:00,9.0,9.0,-100.00,NNE,25,0.0,1.0,99,0.00,,,-99.99,,2013-02-24 15:13:00,
2013-02-24 09:22:00,11.0,10.0,-100.00,NNE,25,1.0,1.0,99,0.00,,,-99.99,,2013-02-24 15:22:00,
2013-02-24 09:32:00,13.0,12.0,-100.00,NE,35,2.0,2.0,99,0.00,,,-99.99,,2013-02-24 15:32:00,
2013-02-24 09:42:00,13.0,12.0,-100.00,NE,35,2.0,2.0,99,0.00,,,-99.99,,2013-02-24 15:42:00,
2013-02-24 09:52:00,15.0,15.0,-100.00,NNE,15,2.0,3.0,99,0.00,,,-99.99,,2013-02-24 15:52:00,
2013-02-24 10:11:00,17.0,17.0,-100.00,NE,45,2.0,4.0,99,0.00,,,-99.99,,2013-02-24 16:11:00,
2013-02-24 10:21:00,18.0,17.0,-100.00,North,10,2.0,3.0,99,0.00,,,-99.99,,2013-02-24 16:21:00,
2013-02-24 10:32:00,19.0,19.0,-100.00,North,10,2.0,2.0,99,0.00,,,-99.99,,2013-02-24 16:32:00,
2013-02-24 10:41:00,21.0,21.0,-100.00,NNE,20,1.0,2.0,99,0.00,,,-99.99,,2013-02-24 16:41:00,
2013-02-24 10:52:00,23.0,22.0,-100.00,North,5,0.0,2.0,96,0.00,,,-99.99,,2013-02-24 16:52:00,
2013-02-24 11:01:00,25.0,23.0,-100.00,North,10,0.0,1.0,91,0.00,,,-99.99,,2013-02-24 17:01:00,
2013-02-24 11:11:00,25.0,23.0,-100.00,North,5,0.0,1.0,91,0.00,,,-99.99,,2013-02-24 17:11:00,
2013-02-24 11:21:00,29.0,25.0,-100.00,WSW,255,2.0,3.0,82,0.00,,,-99.99,,2013-02-24 17:21:00,
2013-02-24 11:32:00,30.0,25.0,-100.00,WSW,250,2.0,4.0,80,0.00,,,-99.99,,2013-02-24 17:32:00,
2013-02-24 11:52:00,30.0,25.0,-100.00,WSW,250,4.0,4.0,80,0.00,,,-99.99,,2013-02-24 17:52:00,
2013-02-24 12:11:00,31.0,26.0,-100.00,WSW,240,4.0,4.0,81,0.00,,,-99.99,,2013-02-24 18:11:00,
2013-02-24 12:22:00,33.0,27.0,-100.00,WSW,250,2.0,3.0,79,0.00,,,-99.99,,2013-02-24 18:22:00,
2013-02-24 12:32:00,34.0,27.0,-100.00,West,260,3.0,4.0,75,0.00,,,-99.99,,2013-02-24 18:32:00,
2013-02-24 12:51:00,33.0,27.0,-100.00,WSW,255,5.0,7.0,79,0.00,,,-99.99,,2013-02-24 18:51:00,
2013-02-24 13:11:00,33.0,27.0,-100.00,WSW,250,4.0,7.0,79,0.00,,,-99.99,,2013-02-24 19:11:00,
2013-02-24 13:22:00,34.0,28.0,-100.00,WSW,250,4.0,6.0,78,0.00,,,-99.99,,2013-02-24 19:22:00,
2013-02-24 13:32:00,33.0,27.0,-100.00,West,275,4.0,7.0,79,0.00,,,-99.99,,2013-02-24 19:32:00,
2013-02-24 13:41:00,33.0,27.0,-100.00,WSW,240,5.0,7.0,80,0.00,,,-99.99,,2013-02-24 19:41:00,
2013-02-24 13:51:00,33.0,28.0,-100.00,SW,235,4.0,6.0,81,0.00,,,-99.99,,2013-02-24 19:51:00,
2013-02-24 14:11:00,35.0,29.0,-100.00,WSW,240,2.0,3.0,78,0.00,,,-99.99,,2013-02-24 20:11:00,
2013-02-24 14:21:00,35.0,29.0,-100.00,WSW,245,2.0,4.0,76,0.00,,,-99.99,,2013-02-24 20:21:00,
2013-02-24 14:31:00,35.0,28.0,-100.00,WSW,240,4.0,5.0,76,0.00,,,-99.99,,2013-02-24 20:31:00,
2013-02-24 14:52:00,34.0,28.0,-100.00,WSW,250,4.0,6.0,77,0.00,,,-99.99,,2013-02-24 20:52:00,
2013-02-24 15:21:00,32.0,27.0,-100.00,North,10,2.0,4.0,82,0.00,,,-99.99,,2013-02-24 21:21:00,
2013-02-24 15:32:00,31.0,27.0,-100.00,NW,325,4.0,6.0,85,0.00,,,-99.99,,2013-02-24 21:32:00,
2013-02-24 15:52:00,30.0,27.0,-100.00,NW,325,4.0,6.0,87,0.00,,,-99.99,,2013-02-24 21:52:00,
2013-02-24 16:01:00,30.0,27.0,-100.00,NW,325,5.0,6.0,87,0.00,,,-99.99,,2013-02-24 22:01:00,
2013-02-24 16:11:00,29.0,27.0,-100.00,NNW,330,4.0,6.0,88,0.00,,,-99.99,,2013-02-24 22:11:00,
2013-02-24 16:21:00,29.0,27.0,-100.00,NNW,330,4.0,6.0,88,0.00,,,-99.99,,2013-02-24 22:21:00,
2013-02-24 16:31:00,29.0,27.0,-100.00,North,5,6.0,7.0,89,0.00,,,-99.99,,2013-02-24 22:31:00,
2013-02-24 16:41:00,29.0,27.0,-100.00,North,5,6.0,7.0,89,0.00,,,-99.99,,2013-02-24 22:41:00,
2013-02-24 16:51:00,29.0,27.0,-100.00,North,350,4.0,6.0,90,0.00,,,-99.99,,2013-02-24 22:51:00,
2013-02-24 17:02:00,29.0,27.0,-100.00,North,5,5.0,6.0,90,0.00,,,-99.99,,2013-02-24 23:02:00,
2013-02-24 17:11:00,29.0,27.0,-100.00,North,0,5.0,7.0,91,0.00,,,-99.99,,2013-02-24 23:11:00,
2013-02-24 17:21:00,29.0,27.0,-100.00,North,10,6.0,7.0,91,0.00,,,-99.99,,2013-02-24 23:21:00,
2013-02-24 17:31:00,29.0,27.0,-100.00,NNE,20,6.0,9.0,92,0.00,,,-99.99,,2013-02-24 23:31:00,
2013-02-24 17:41:00,28.0,27.0,-100.00,NNE,25,6.0,7.0,93,0.00,,,-99.99,,2013-02-24 23:41:00,
2013-02-24 17:52:00,28.0,27.0,-100.00,NNE,25,6.0,7.0,94,0.00,,,-99.99,,2013-02-24 23:52:00,
2013-02-24 18:01:00,28.0,27.0,-100.00,NNE,25,6.0,7.0,94,0.00,,,-99.99,,2013-02-25 00:01:00,
2013-02-24 18:11:00,27.0,26.0,-100.00,North,-999,-999.0,-999.0,94,-99.99,,,-99.99,,2013-02-25 00:11:00,
2013-02-24 18:21:00,27.0,26.0,-100.00,NNE,15,6.0,8.0,94,0.00,,,-99.99,,2013-02-25 00:21:00,
2013-02-24 18:31:00,27.0,26.0,-100.00,NNE,20,6.0,9.0,96,0.00,,,-99.99,,2013-02-25 00:31:00,
2013-02-24 18:42:00,27.0,26.0,-100.00,NNE,20,6.0,9.0,96,0.00,,,-99.99,,2013-02-25 00:42:00,
2013-02-24 18:51:00,27.0,26.0,-100.00,NNE,30,8.0,10.0,96,0.00,,,-99.99,,2013-02-25 00:51:00,
2013-02-24 19:01:00,27.0,26.0,-100.00,NNE,30,4.0,9.0,96,0.00,,,-99.99,,2013-02-25 01:01:00,
2013-02-24 19:21:00,26.0,26.0,-100.00,NNE,25,6.0,9.0,98,0.00,,,-99.99,,2013-02-25 01:21:00,
2013-02-24 19:31:00,26.0,26.0,-100.00,NNE,25,4.0,7.0,100,0.00,,,-99.99,,2013-02-25 01:31:00,
2013-02-24 19:42:00,26.0,26.0,-100.00,NNE,30,4.0,7.0,99,0.00,,,-99.99,,2013-02-25 01:42:00,
2013-02-24 19:51:00,26.0,26.0,-100.00,NNE,30,5.0,6.0,99,0.00,,,-99.99,,2013-02-25 01:51:00,
2013-02-24 20:01:00,26.0,26.0,-100.00,NNE,30,5.0,6.0,99,0.00,,,-99.99,,2013-02-25 02:01:00,
2013-02-24 20:11:00,26.0,26.0,-100.00,NNE,20,5.0,6.0,99,0.00,,,-99.99,,2013-02-25 02:11:00,
2013-02-24 20:21:00,25.0,25.0,-100.00,NNE,30,5.0,7.0,99,0.00,,,-99.99,,2013-02-25 02:21:00,
2013-02-24 20:31:00,25.0,25.0,-100.00,NNE,25,3.0,4.0,99,0.00,,,-99.99,,2013-02-25 02:31:00,
2013-02-24 20:52:00,25.0,25.0,-100.00,NNE,25,4.0,5.0,99,0.00,,,-99.99,,2013-02-25 02:52:00,
2013-02-24 21:01:00,25.0,25.0,-100.00,NNE,25,4.0,4.0,99,0.00,,,-99.99,,2013-02-25 03:01:00,
2013-02-24 21:21:00,25.0,25.0,-100.00,NNE,20,4.0,6.0,99,0.00,,,-99.99,,2013-02-25 03:21:00,
2013-02-24 21:31:00,25.0,25.0,-100.00,North,0,4.0,7.0,99,0.00,,,-99.99,,2013-02-25 03:31:00,
2013-02-24 21:41:00,25.0,25.0,-100.00,North,0,4.0,7.0,99,0.00,,,-99.99,,2013-02-25 03:41:00,
2013-02-24 21:51:00,25.0,25.0,-100.00,NNE,20,2.0,5.0,99,0.00,,,-99.99,,2013-02-25 03:51:00,
2013-02-24 22:01:00,25.0,25.0,-100.00,NNE,20,2.0,5.0,99,0.00,,,-99.99,,2013-02-25 04:01:00,
2013-02-24 22:11:00,25.0,25.0,-100.00,NNE,25,2.0,4.0,99,0.00,,,-99.99,,2013-02-25 04:11:00,
2013-02-24 22:21:00,25.0,25.0,-100.00,NNE,25,2.0,4.0,99,0.00,,,-99.99,,2013-02-25 04:21:00,
2013-02-24 22:31:00,25.0,25.0,-100.00,NNE,30,3.0,4.0,99,0.00,,,-99.99,,2013-02-25 04:31:00,
2013-02-24 22:41:00,25.0,25.0,-100.00,NNE,25,2.0,4.0,99,0.00,,,-99.99,,2013-02-25 04:41:00,
2013-02-24 22:51:00,25.0,25.0,-100.00,NNE,30,2.0,4.0,99,0.00,,,-99.99,,2013-02-25 04:51:00,
2013-02-24 23:01:00,25.0,25.0,-100.00,NNE,15,3.0,4.0,99,0.00,,,-99.99,,2013-02-25 05:01:00,
2013-02-24 23:11:00,25.0,25.0,-100.00,NNE,20,2.0,4.0,99,0.00,,,-99.99,,2013-02-25 05:11:00,
2013-02-24 23:22:00,25.0,25.0,-100.00,NNE,15,2.0,4.0,99,0.00,,,-99.99,,2013-02-25 05:22:00,
2013-02-24 23:31:00,25.0,25.0,-100.00,North,5,2.0,4.0,99,0.00,,,-99.99,,2013-02-25 05:31:00,
2013-02-24 23:41:00,25.0,25.0,-100.00,North,5,2.0,4.0,99,0.00,,,-99.99,,2013-02-25 05:41:00,
2013-02-24 23:52:00,25.0,25.0,-100.00,NNW,345,3.0,6.0,99,0.00,,,-99.99,,2013-02-25 05:52:00,